Year,Month,Day,Hour,Minute,Value (Times are PST for insolation in W/m^2)
2015,10,11,00,00,0.00
2015,10,11,00,01,0.00
2015,10,11,00,02,0.00
2015,10,11,00,03,0.00
2015,10,11,00,04,0.00
2015,10,11,00,05,0.00
2015,10,11,00,06,0.00
2015,10,11,00,07,0.00
2015,10,11,00,08,0.00
2015,10,11,00,09,0.00
2015,10,11,00,10,0.00
2015,10,11,00,11,0.00
2015,10,11,00,12,0.00
2015,10,11,00,13,0.00
2015,10,11,00,14,0.00
2015,10,11,00,15,0.00
2015,10,11,00,16,0.00
2015,10,11,00,17,0.00
2015,10,11,00,18,0.00
2015,10,11,00,19,0.00
2015,10,11,00,20,0.00
2015,10,11,00,21,0.00
2015,10,11,00,22,0.00
2015,10,11,00,23,0.00
2015,10,11,00,24,0.00
2015,10,11,00,25,0.00
2015,10,11,00,26,0.00
2015,10,11,00,27,0.00
2015,10,11,00,28,0.00
2015,10,11,00,29,0.00
2015,10,11,00,30,0.00
2015,10,11,00,31,0.00
2015,10,11,00,32,0.00
2015,10,11,00,33,0.00
2015,10,11,00,34,0.00
2015,10,11,00,35,0.00
2015,10,11,00,36,0.00
2015,10,11,00,37,0.00
2015,10,11,00,38,0.00
2015,10,11,00,39,0.00
2015,10,11,00,40,0.00
2015,10,11,00,41,0.00
2015,10,11,00,42,0.00
2015,10,11,00,43,0.00
2015,10,11,00,44,0.00
2015,10,11,00,45,0.00
2015,10,11,00,46,0.00
2015,10,11,00,47,0.00
2015,10,11,00,48,0.00
2015,10,11,00,49,0.00
2015,10,11,00,50,0.00
2015,10,11,00,51,0.00
2015,10,11,00,52,0.00
2015,10,11,00,53,0.00
2015,10,11,00,54,0.00
2015,10,11,00,55,0.00
2015,10,11,00,56,0.00
2015,10,11,00,57,0.00
2015,10,11,00,58,0.00
2015,10,11,00,59,0.00
2015,10,11,01,00,0.00
2015,10,11,01,01,0.00
2015,10,11,01,02,0.00
2015,10,11,01,03,0.00
2015,10,11,01,04,0.00
2015,10,11,01,05,0.00
2015,10,11,01,06,0.00
2015,10,11,01,07,0.00
2015,10,11,01,08,0.00
2015,10,11,01,09,0.00
2015,10,11,01,10,0.00
2015,10,11,01,11,0.00
2015,10,11,01,12,0.00
2015,10,11,01,13,0.00
2015,10,11,01,14,0.00
2015,10,11,01,15,0.00
2015,10,11,01,16,0.00
2015,10,11,01,17,0.00
2015,10,11,01,18,0.00
2015,10,11,01,19,0.00
2015,10,11,01,20,0.00
2015,10,11,01,21,0.00
2015,10,11,01,22,0.00
2015,10,11,01,23,0.00
2015,10,11,01,24,0.00
2015,10,11,01,25,0.00
2015,10,11,01,26,0.00
2015,10,11,01,27,0.00
2015,10,11,01,28,0.00
2015,10,11,01,29,0.00
2015,10,11,01,30,0.00
2015,10,11,01,31,0.00
2015,10,11,01,32,0.00
2015,10,11,01,33,0.00
2015,10,11,01,34,0.00
2015,10,11,01,35,0.00
2015,10,11,01,36,0.00
2015,10,11,01,37,0.00
2015,10,11,01,38,0.00
2015,10,11,01,39,0.00
2015,10,11,01,40,0.00
2015,10,11,01,41,0.00
2015,10,11,01,42,0.00
2015,10,11,01,43,0.00
2015,10,11,01,44,0.00
2015,10,11,01,45,0.00
2015,10,11,01,46,0.00
2015,10,11,01,47,0.00
2015,10,11,01,48,0.00
2015,10,11,01,49,0.00
2015,10,11,01,50,0.00
2015,10,11,01,51,0.00
2015,10,11,01,52,0.00
2015,10,11,01,53,0.00
2015,10,11,01,54,0.00
2015,10,11,01,55,0.00
2015,10,11,01,56,0.00
2015,10,11,01,57,0.00
2015,10,11,01,58,0.00
2015,10,11,01,59,0.00
2015,10,11,02,00,0.00
2015,10,11,02,01,0.00
2015,10,11,02,02,0.00
2015,10,11,02,03,0.00
2015,10,11,02,04,0.00
2015,10,11,02,05,0.00
2015,10,11,02,06,0.00
2015,10,11,02,07,0.00
2015,10,11,02,08,0.00
2015,10,11,02,09,0.00
2015,10,11,02,10,0.00
2015,10,11,02,11,0.00
2015,10,11,02,12,0.00
2015,10,11,02,13,0.00
2015,10,11,02,14,0.00
2015,10,11,02,15,0.00
2015,10,11,02,16,0.00
2015,10,11,02,17,0.00
2015,10,11,02,18,0.00
2015,10,11,02,19,0.00
2015,10,11,02,20,0.00
2015,10,11,02,21,0.00
2015,10,11,02,22,0.00
2015,10,11,02,23,0.00
2015,10,11,02,24,0.00
2015,10,11,02,25,0.00
2015,10,11,02,26,0.00
2015,10,11,02,27,0.00
2015,10,11,02,28,0.00
2015,10,11,02,29,0.00
2015,10,11,02,30,0.00
2015,10,11,02,31,0.00
2015,10,11,02,32,0.00
2015,10,11,02,33,0.00
2015,10,11,02,34,0.00
2015,10,11,02,35,0.00
2015,10,11,02,36,0.00
2015,10,11,02,37,0.00
2015,10,11,02,38,0.00
2015,10,11,02,39,0.00
2015,10,11,02,40,0.00
2015,10,11,02,41,0.00
2015,10,11,02,42,0.00
2015,10,11,02,43,0.00
2015,10,11,02,44,0.00
2015,10,11,02,45,0.00
2015,10,11,02,46,0.00
2015,10,11,02,47,0.00
2015,10,11,02,48,0.00
2015,10,11,02,49,0.00
2015,10,11,02,50,0.00
2015,10,11,02,51,0.00
2015,10,11,02,52,0.00
2015,10,11,02,53,0.00
2015,10,11,02,54,0.00
2015,10,11,02,55,0.00
2015,10,11,02,56,0.00
2015,10,11,02,57,0.00
2015,10,11,02,58,0.00
2015,10,11,02,59,0.00
2015,10,11,03,00,0.00
2015,10,11,03,01,0.00
2015,10,11,03,02,0.00
2015,10,11,03,03,0.00
2015,10,11,03,04,0.00
2015,10,11,03,05,0.00
2015,10,11,03,06,0.00
2015,10,11,03,07,0.00
2015,10,11,03,08,0.00
2015,10,11,03,09,0.00
2015,10,11,03,10,0.00
2015,10,11,03,11,0.00
2015,10,11,03,12,0.00
2015,10,11,03,13,0.00
2015,10,11,03,14,0.00
2015,10,11,03,15,0.00
2015,10,11,03,16,0.00
2015,10,11,03,17,0.00
2015,10,11,03,18,0.00
2015,10,11,03,19,0.00
2015,10,11,03,20,0.00
2015,10,11,03,21,0.00
2015,10,11,03,22,0.00
2015,10,11,03,23,0.00
2015,10,11,03,24,0.00
2015,10,11,03,25,0.00
2015,10,11,03,26,0.00
2015,10,11,03,27,0.00
2015,10,11,03,28,0.00
2015,10,11,03,29,0.00
2015,10,11,03,30,0.00
2015,10,11,03,31,0.00
2015,10,11,03,32,0.00
2015,10,11,03,33,0.00
2015,10,11,03,34,0.00
2015,10,11,03,35,0.00
2015,10,11,03,36,0.00
2015,10,11,03,37,0.00
2015,10,11,03,38,0.00
2015,10,11,03,39,0.00
2015,10,11,03,40,0.00
2015,10,11,03,41,0.00
2015,10,11,03,42,0.00
2015,10,11,03,43,0.00
2015,10,11,03,44,0.00
2015,10,11,03,45,0.00
2015,10,11,03,46,0.00
2015,10,11,03,47,0.00
2015,10,11,03,48,0.00
2015,10,11,03,49,0.00
2015,10,11,03,50,0.00
2015,10,11,03,51,0.00
2015,10,11,03,52,0.00
2015,10,11,03,53,0.00
2015,10,11,03,54,0.00
2015,10,11,03,55,0.00
2015,10,11,03,56,0.00
2015,10,11,03,57,0.00
2015,10,11,03,58,0.00
2015,10,11,03,59,0.00
2015,10,11,04,00,0.00
2015,10,11,04,01,0.00
2015,10,11,04,02,0.00
2015,10,11,04,03,0.00
2015,10,11,04,04,0.00
2015,10,11,04,05,0.00
2015,10,11,04,06,0.00
2015,10,11,04,07,0.00
2015,10,11,04,08,0.00
2015,10,11,04,09,0.00
2015,10,11,04,10,0.00
2015,10,11,04,11,0.00
2015,10,11,04,12,0.00
2015,10,11,04,13,0.00
2015,10,11,04,14,0.00
2015,10,11,04,15,0.00
2015,10,11,04,16,0.00
2015,10,11,04,17,0.00
2015,10,11,04,18,0.00
2015,10,11,04,19,0.00
2015,10,11,04,20,0.00
2015,10,11,04,21,0.00
2015,10,11,04,22,0.00
2015,10,11,04,23,0.00
2015,10,11,04,24,0.00
2015,10,11,04,25,0.00
2015,10,11,04,26,0.00
2015,10,11,04,27,0.00
2015,10,11,04,28,0.00
2015,10,11,04,29,0.00
2015,10,11,04,30,0.00
2015,10,11,04,31,0.00
2015,10,11,04,32,0.00
2015,10,11,04,33,0.00
2015,10,11,04,34,0.00
2015,10,11,04,35,0.00
2015,10,11,04,36,0.00
2015,10,11,04,37,0.00
2015,10,11,04,38,0.00
2015,10,11,04,39,0.00
2015,10,11,04,40,0.00
2015,10,11,04,41,0.00
2015,10,11,04,42,0.00
2015,10,11,04,43,0.00
2015,10,11,04,44,0.00
2015,10,11,04,45,0.00
2015,10,11,04,46,0.00
2015,10,11,04,47,0.00
2015,10,11,04,48,0.00
2015,10,11,04,49,0.00
2015,10,11,04,50,0.00
2015,10,11,04,51,0.00
2015,10,11,04,52,0.00
2015,10,11,04,53,0.00
2015,10,11,04,54,0.00
2015,10,11,04,55,0.00
2015,10,11,04,56,0.00
2015,10,11,04,57,0.00
2015,10,11,04,58,0.00
2015,10,11,04,59,0.00
2015,10,11,05,00,0.00
2015,10,11,05,01,0.00
2015,10,11,05,02,0.00
2015,10,11,05,03,0.00
2015,10,11,05,04,0.00
2015,10,11,05,05,0.00
2015,10,11,05,06,0.00
2015,10,11,05,07,0.00
2015,10,11,05,08,0.00
2015,10,11,05,09,0.00
2015,10,11,05,10,0.00
2015,10,11,05,11,0.00
2015,10,11,05,12,0.00
2015,10,11,05,13,0.00
2015,10,11,05,14,0.00
2015,10,11,05,15,0.00
2015,10,11,05,16,0.00
2015,10,11,05,17,0.00
2015,10,11,05,18,0.00
2015,10,11,05,19,0.00
2015,10,11,05,20,0.00
2015,10,11,05,21,0.00
2015,10,11,05,22,0.00
2015,10,11,05,23,0.00
2015,10,11,05,24,0.00
2015,10,11,05,25,0.00
2015,10,11,05,26,0.00
2015,10,11,05,27,0.00
2015,10,11,05,28,0.00
2015,10,11,05,29,0.00
2015,10,11,05,30,0.00
2015,10,11,05,31,0.00
2015,10,11,05,32,0.00
2015,10,11,05,33,0.00
2015,10,11,05,34,0.00
2015,10,11,05,35,0.00
2015,10,11,05,36,0.00
2015,10,11,05,37,0.00
2015,10,11,05,38,0.00
2015,10,11,05,39,0.00
2015,10,11,05,40,0.00
2015,10,11,05,41,0.00
2015,10,11,05,42,0.00
2015,10,11,05,43,0.00
2015,10,11,05,44,0.00
2015,10,11,05,45,0.00
2015,10,11,05,46,0.00
2015,10,11,05,47,0.00
2015,10,11,05,48,0.00
2015,10,11,05,49,0.00
2015,10,11,05,50,0.00
2015,10,11,05,51,0.00
2015,10,11,05,52,0.00
2015,10,11,05,53,0.00
2015,10,11,05,54,0.00
2015,10,11,05,55,0.00
2015,10,11,05,56,0.00
2015,10,11,05,57,0.00
2015,10,11,05,58,0.00
2015,10,11,05,59,0.00
2015,10,11,06,00,0.00
2015,10,11,06,01,0.00
2015,10,11,06,02,0.00
2015,10,11,06,03,0.00
2015,10,11,06,04,0.00
2015,10,11,06,05,0.00
2015,10,11,06,06,0.00
2015,10,11,06,07,0.00
2015,10,11,06,08,0.00
2015,10,11,06,09,0.00
2015,10,11,06,10,0.00
2015,10,11,06,11,0.00
2015,10,11,06,12,0.00
2015,10,11,06,13,0.00
2015,10,11,06,14,0.00
2015,10,11,06,15,0.00
2015,10,11,06,16,0.00
2015,10,11,06,17,0.00
2015,10,11,06,18,0.00
2015,10,11,06,19,0.00
2015,10,11,06,20,0.00
2015,10,11,06,21,0.00
2015,10,11,06,22,0.00
2015,10,11,06,23,0.00
2015,10,11,06,24,0.00
2015,10,11,06,25,0.00
2015,10,11,06,26,0.00
2015,10,11,06,27,0.00
2015,10,11,06,28,0.00
2015,10,11,06,29,0.00
2015,10,11,06,30,0.00
2015,10,11,06,31,0.00
2015,10,11,06,32,0.00
2015,10,11,06,33,0.00
2015,10,11,06,34,0.00
2015,10,11,06,35,0.00
2015,10,11,06,36,0.00
2015,10,11,06,37,0.00
2015,10,11,06,38,0.00
2015,10,11,06,39,0.00
2015,10,11,06,40,0.00
2015,10,11,06,41,0.00
2015,10,11,06,42,0.00
2015,10,11,06,43,0.00
2015,10,11,06,44,0.00
2015,10,11,06,45,0.00
2015,10,11,06,46,0.00
2015,10,11,06,47,0.00
2015,10,11,06,48,0.00
2015,10,11,06,49,0.00
2015,10,11,06,50,0.00
2015,10,11,06,51,0.00
2015,10,11,06,52,0.00
2015,10,11,06,53,0.00
2015,10,11,06,54,0.00
2015,10,11,06,55,0.00
2015,10,11,06,56,0.00
2015,10,11,06,57,0.00
2015,10,11,06,58,0.00
2015,10,11,06,59,0.00
2015,10,11,07,00,0.00
2015,10,11,07,01,0.00
2015,10,11,07,02,0.00
2015,10,11,07,03,0.00
2015,10,11,07,04,0.00
2015,10,11,07,05,0.00
2015,10,11,07,06,0.00
2015,10,11,07,07,0.00
2015,10,11,07,08,0.00
2015,10,11,07,09,0.00
2015,10,11,07,10,0.00
2015,10,11,07,11,0.00
2015,10,11,07,12,0.00
2015,10,11,07,13,0.00
2015,10,11,07,14,0.00
2015,10,11,07,15,0.00
2015,10,11,07,16,0.00
2015,10,11,07,17,0.00
2015,10,11,07,18,0.00
2015,10,11,07,19,0.00
2015,10,11,07,20,0.00
2015,10,11,07,21,0.00
2015,10,11,07,22,0.00
2015,10,11,07,23,0.00
2015,10,11,07,24,0.00
2015,10,11,07,25,0.00
2015,10,11,07,26,0.00
2015,10,11,07,27,0.00
2015,10,11,07,28,0.00
2015,10,11,07,29,0.20
2015,10,11,07,30,5.00
2015,10,11,07,31,5.00
2015,10,11,07,32,5.00
2015,10,11,07,33,5.00
2015,10,11,07,34,5.00
2015,10,11,07,35,5.00
2015,10,11,07,36,0.40
2015,10,11,07,37,0.00
2015,10,11,07,38,0.00
2015,10,11,07,39,0.00
2015,10,11,07,40,0.00
2015,10,11,07,41,3.30
2015,10,11,07,42,1.10
2015,10,11,07,43,0.00
2015,10,11,07,44,0.70
2015,10,11,07,45,5.00
2015,10,11,07,46,5.00
2015,10,11,07,47,5.00
2015,10,11,07,48,5.00
2015,10,11,07,49,6.60
2015,10,11,07,50,7.00
2015,10,11,07,51,7.00
2015,10,11,07,52,7.50
2015,10,11,07,53,9.00
2015,10,11,07,54,9.00
2015,10,11,07,55,9.00
2015,10,11,07,56,9.00
2015,10,11,07,57,10.80
2015,10,11,07,58,11.10
2015,10,11,07,59,12.00
2015,10,11,08,00,12.80
2015,10,11,08,01,14.00
2015,10,11,08,02,15.30
2015,10,11,08,03,16.00
2015,10,11,08,04,17.90
2015,10,11,08,05,18.10
2015,10,11,08,06,19.00
2015,10,11,08,07,19.00
2015,10,11,08,08,19.00
2015,10,11,08,09,19.00
2015,10,11,08,10,19.00
2015,10,11,08,11,19.00
2015,10,11,08,12,18.00
2015,10,11,08,13,18.00
2015,10,11,08,14,18.00
2015,10,11,08,15,18.00
2015,10,11,08,16,18.00
2015,10,11,08,17,18.80
2015,10,11,08,18,19.10
2015,10,11,08,19,21.00
2015,10,11,08,20,21.60
2015,10,11,08,21,23.80
2015,10,11,08,22,25.50
2015,10,11,08,23,27.30
2015,10,11,08,24,29.60
2015,10,11,08,25,31.80
2015,10,11,08,26,35.60
2015,10,11,08,27,39.80
2015,10,11,08,28,43.60
2015,10,11,08,29,47.70
2015,10,11,08,30,49.00
2015,10,11,08,31,50.60
2015,10,11,08,32,52.80
2015,10,11,08,33,52.70
2015,10,11,08,34,51.00
2015,10,11,08,35,51.00
2015,10,11,08,36,52.00
2015,10,11,08,37,53.60
2015,10,11,08,38,54.00
2015,10,11,08,39,54.10
2015,10,11,08,40,55.30
2015,10,11,08,41,50.50
2015,10,11,08,42,49.80
2015,10,11,08,43,50.00
2015,10,11,08,44,47.70
2015,10,11,08,45,47.00
2015,10,11,08,46,46.00
2015,10,11,08,47,44.00
2015,10,11,08,48,44.00
2015,10,11,08,49,44.80
2015,10,11,08,50,46.00
2015,10,11,08,51,46.00
2015,10,11,08,52,46.80
2015,10,11,08,53,48.90
2015,10,11,08,54,51.40
2015,10,11,08,55,54.50
2015,10,11,08,56,57.60
2015,10,11,08,57,62.60
2015,10,11,08,58,66.30
2015,10,11,08,59,69.30
2015,10,11,09,00,70.00
2015,10,11,09,01,69.90
2015,10,11,09,02,69.90
2015,10,11,09,03,72.80
2015,10,11,09,04,75.10
2015,10,11,09,05,76.00
2015,10,11,09,06,76.80
2015,10,11,09,07,80.70
2015,10,11,09,08,81.30
2015,10,11,09,09,83.30
2015,10,11,09,10,84.00
2015,10,11,09,11,83.40
2015,10,11,09,12,81.70
2015,10,11,09,13,79.40
2015,10,11,09,14,77.20
2015,10,11,09,15,73.40
2015,10,11,09,16,70.00
2015,10,11,09,17,69.60
2015,10,11,09,18,69.00
2015,10,11,09,19,69.00
2015,10,11,09,20,67.40
2015,10,11,09,21,65.10
2015,10,11,09,22,62.90
2015,10,11,09,23,62.00
2015,10,11,09,24,62.40
2015,10,11,09,25,63.00
2015,10,11,09,26,63.00
2015,10,11,09,27,64.60
2015,10,11,09,28,65.00
2015,10,11,09,29,65.30
2015,10,11,09,30,67.50
2015,10,11,09,31,69.40
2015,10,11,09,32,70.00
2015,10,11,09,33,71.30
2015,10,11,09,34,72.00
2015,10,11,09,35,72.10
2015,10,11,09,36,74.30
2015,10,11,09,37,76.30
2015,10,11,09,38,77.80
2015,10,11,09,39,80.00
2015,10,11,09,40,82.30
2015,10,11,09,41,83.80
2015,10,11,09,42,87.60
2015,10,11,09,43,90.10
2015,10,11,09,44,91.50
2015,10,11,09,45,93.70
2015,10,11,09,46,96.00
2015,10,11,09,47,97.60
2015,10,11,09,48,99.60
2015,10,11,09,49,101.90
2015,10,11,09,50,104.40
2015,10,11,09,51,107.60
2015,10,11,09,52,109.80
2015,10,11,09,53,112.00
2015,10,11,09,54,113.00
2015,10,11,09,55,113.80
2015,10,11,09,56,117.70
2015,10,11,09,57,121.90
2015,10,11,09,58,127.30
2015,10,11,09,59,128.80
2015,10,11,10,00,128.90
2015,10,11,10,01,128.00
2015,10,11,10,02,128.00
2015,10,11,10,03,129.80
2015,10,11,10,04,132.30
2015,10,11,10,05,134.80
2015,10,11,10,06,137.70
2015,10,11,10,07,138.00
2015,10,11,10,08,139.50
2015,10,11,10,09,141.00
2015,10,11,10,10,143.80
2015,10,11,10,11,148.20
2015,10,11,10,12,149.50
2015,10,11,10,13,149.90
2015,10,11,10,14,147.00
2015,10,11,10,15,151.70
2015,10,11,10,16,160.20
2015,10,11,10,17,168.20
2015,10,11,10,18,172.20
2015,10,11,10,19,181.60
2015,10,11,10,20,189.60
2015,10,11,10,21,192.00
2015,10,11,10,22,193.90
2015,10,11,10,23,195.00
2015,10,11,10,24,193.20
2015,10,11,10,25,212.70
2015,10,11,10,26,223.00
2015,10,11,10,27,229.20
2015,10,11,10,28,237.90
2015,10,11,10,29,241.60
2015,10,11,10,30,251.00
2015,10,11,10,31,254.30
2015,10,11,10,32,238.00
2015,10,11,10,33,208.20
2015,10,11,10,34,201.50
2015,10,11,10,35,190.30
2015,10,11,10,36,190.70
2015,10,11,10,37,189.10
2015,10,11,10,38,181.80
2015,10,11,10,39,179.70
2015,10,11,10,40,170.70
2015,10,11,10,41,167.80
2015,10,11,10,42,165.90
2015,10,11,10,43,158.40
2015,10,11,10,44,152.30
2015,10,11,10,45,148.20
2015,10,11,10,46,145.70
2015,10,11,10,47,145.20
2015,10,11,10,48,147.20
2015,10,11,10,49,143.90
2015,10,11,10,50,143.30
2015,10,11,10,51,147.10
2015,10,11,10,52,147.90
2015,10,11,10,53,145.40
2015,10,11,10,54,141.70
2015,10,11,10,55,141.40
2015,10,11,10,56,144.10
2015,10,11,10,57,146.00
2015,10,11,10,58,146.00
2015,10,11,10,59,146.00
2015,10,11,11,00,146.00
2015,10,11,11,01,146.50
2015,10,11,11,02,150.00
2015,10,11,11,03,154.00
2015,10,11,11,04,155.00
2015,10,11,11,05,151.90
2015,10,11,11,06,146.20
2015,10,11,11,07,141.90
2015,10,11,11,08,141.30
2015,10,11,11,09,143.50
2015,10,11,11,10,148.60
2015,10,11,11,11,151.00
2015,10,11,11,12,152.50
2015,10,11,11,13,154.80
2015,10,11,11,14,158.40
2015,10,11,11,15,163.30
2015,10,11,11,16,168.50
2015,10,11,11,17,175.10
2015,10,11,11,18,185.90
2015,10,11,11,19,193.70
2015,10,11,11,20,193.20
2015,10,11,11,21,203.60
2015,10,11,11,22,213.00
2015,10,11,11,23,215.60
2015,10,11,11,24,226.20
2015,10,11,11,25,236.40
2015,10,11,11,26,253.10
2015,10,11,11,27,251.80
2015,10,11,11,28,257.20
2015,10,11,11,29,248.40
2015,10,11,11,30,232.50
2015,10,11,11,31,217.00
2015,10,11,11,32,214.00
2015,10,11,11,33,211.40
2015,10,11,11,34,199.90
2015,10,11,11,35,186.20
2015,10,11,11,36,174.20
2015,10,11,11,37,168.20
2015,10,11,11,38,166.00
2015,10,11,11,39,167.70
2015,10,11,11,40,169.00
2015,10,11,11,41,173.50
2015,10,11,11,42,176.00
2015,10,11,11,43,176.50
2015,10,11,11,44,178.00
2015,10,11,11,45,178.00
2015,10,11,11,46,173.30
2015,10,11,11,47,164.80
2015,10,11,11,48,153.90
2015,10,11,11,49,145.30
2015,10,11,11,50,140.00
2015,10,11,11,51,137.00
2015,10,11,11,52,139.10
2015,10,11,11,53,144.30
2015,10,11,11,54,151.40
2015,10,11,11,55,155.70
2015,10,11,11,56,154.00
2015,10,11,11,57,145.70
2015,10,11,11,58,135.70
2015,10,11,11,59,127.40
2015,10,11,12,00,121.90
2015,10,11,12,01,115.30
2015,10,11,12,02,109.10
2015,10,11,12,03,100.40
2015,10,11,12,04,88.00
2015,10,11,12,05,77.50
2015,10,11,12,06,69.40
2015,10,11,12,07,67.00
2015,10,11,12,08,68.50
2015,10,11,12,09,67.10
2015,10,11,12,10,67.00
2015,10,11,12,11,67.90
2015,10,11,12,12,71.60
2015,10,11,12,13,75.00
2015,10,11,12,14,72.00
2015,10,11,12,15,64.60
2015,10,11,12,16,63.00
2015,10,11,12,17,67.60
2015,10,11,12,18,73.00
2015,10,11,12,19,75.30
2015,10,11,12,20,70.40
2015,10,11,12,21,62.50
2015,10,11,12,22,56.90
2015,10,11,12,23,57.90
2015,10,11,12,24,57.70
2015,10,11,12,25,55.40
2015,10,11,12,26,52.80
2015,10,11,12,27,49.10
2015,10,11,12,28,46.40
2015,10,11,12,29,46.70
2015,10,11,12,30,48.80
2015,10,11,12,31,51.00
2015,10,11,12,32,51.00
2015,10,11,12,33,51.00
2015,10,11,12,34,52.00
2015,10,11,12,35,53.00
2015,10,11,12,36,53.80
2015,10,11,12,37,53.10
2015,10,11,12,38,49.30
2015,10,11,12,39,50.50
2015,10,11,12,40,49.00
2015,10,11,12,41,48.00
2015,10,11,12,42,46.30
2015,10,11,12,43,42.90
2015,10,11,12,44,40.20
2015,10,11,12,45,38.80
2015,10,11,12,46,36.00
2015,10,11,12,47,33.00
2015,10,11,12,48,34.00
2015,10,11,12,49,36.30
2015,10,11,12,50,38.60
2015,10,11,12,51,40.10
2015,10,11,12,52,44.40
2015,10,11,12,53,47.60
2015,10,11,12,54,48.20
2015,10,11,12,55,47.00
2015,10,11,12,56,48.30
2015,10,11,12,57,49.00
2015,10,11,12,58,49.00
2015,10,11,12,59,47.00
2015,10,11,13,00,47.50
2015,10,11,13,01,48.20
2015,10,11,13,02,46.50
2015,10,11,13,03,44.70
2015,10,11,13,04,44.00
2015,10,11,13,05,44.30
2015,10,11,13,06,53.00
2015,10,11,13,07,53.00
2015,10,11,13,08,52.20
2015,10,11,13,09,49.00
2015,10,11,13,10,45.10
2015,10,11,13,11,44.00
2015,10,11,13,12,46.70
2015,10,11,13,13,46.90
2015,10,11,13,14,44.90
2015,10,11,13,15,41.20
2015,10,11,13,16,41.00
2015,10,11,13,17,46.40
2015,10,11,13,18,52.90
2015,10,11,13,19,57.60
2015,10,11,13,20,57.70
2015,10,11,13,21,55.20
2015,10,11,13,22,50.60
2015,10,11,13,23,45.40
2015,10,11,13,24,40.90
2015,10,11,13,25,35.90
2015,10,11,13,26,35.10
2015,10,11,13,27,37.00
2015,10,11,13,28,37.00
2015,10,11,13,29,37.00
2015,10,11,13,30,38.60
2015,10,11,13,31,39.30
2015,10,11,13,32,39.00
2015,10,11,13,33,37.30
2015,10,11,13,34,40.30
2015,10,11,13,35,42.50
2015,10,11,13,36,43.30
2015,10,11,13,37,43.00
2015,10,11,13,38,47.10
2015,10,11,13,39,50.60
2015,10,11,13,40,51.00
2015,10,11,13,41,57.00
2015,10,11,13,42,64.60
2015,10,11,13,43,68.30
2015,10,11,13,44,66.00
2015,10,11,13,45,63.10
2015,10,11,13,46,65.90
2015,10,11,13,47,75.30
2015,10,11,13,48,83.10
2015,10,11,13,49,81.80
2015,10,11,13,50,72.70
2015,10,11,13,51,64.50
2015,10,11,13,52,59.40
2015,10,11,13,53,54.10
2015,10,11,13,54,47.70
2015,10,11,13,55,46.90
2015,10,11,13,56,45.50
2015,10,11,13,57,43.20
2015,10,11,13,58,41.00
2015,10,11,13,59,39.40
2015,10,11,14,00,37.40
2015,10,11,14,01,37.00
2015,10,11,14,02,36.70
2015,10,11,14,03,34.20
2015,10,11,14,04,32.00
2015,10,11,14,05,32.00
2015,10,11,14,06,32.70
2015,10,11,14,07,36.00
2015,10,11,14,08,38.80
2015,10,11,14,09,35.00
2015,10,11,14,10,35.00
2015,10,11,14,11,35.80
2015,10,11,14,12,37.00
2015,10,11,14,13,37.00
2015,10,11,14,14,35.40
2015,10,11,14,15,33.20
2015,10,11,14,16,31.70
2015,10,11,14,17,30.60
2015,10,11,14,18,33.20
2015,10,11,14,19,37.50
2015,10,11,14,20,44.40
2015,10,11,14,21,50.00
2015,10,11,14,22,52.80
2015,10,11,14,23,53.00
2015,10,11,14,24,52.50
2015,10,11,14,25,50.30
2015,10,11,14,26,48.00
2015,10,11,14,27,45.10
2015,10,11,14,28,42.40
2015,10,11,14,29,40.20
2015,10,11,14,30,42.00
2015,10,11,14,31,42.00
2015,10,11,14,32,41.30
2015,10,11,14,33,40.00
2015,10,11,14,34,41.30
2015,10,11,14,35,45.10
2015,10,11,14,36,48.70
2015,10,11,14,37,48.70
2015,10,11,14,38,46.10
2015,10,11,14,39,43.20
2015,10,11,14,40,41.00
2015,10,11,14,41,39.40
2015,10,11,14,42,39.00
2015,10,11,14,43,39.90
2015,10,11,14,44,42.20
2015,10,11,14,45,44.50
2015,10,11,14,46,46.40
2015,10,11,14,47,47.00
2015,10,11,14,48,48.30
2015,10,11,14,49,50.50
2015,10,11,14,50,53.70
2015,10,11,14,51,58.60
2015,10,11,14,52,64.00
2015,10,11,14,53,67.80
2015,10,11,14,54,66.90
2015,10,11,14,55,63.70
2015,10,11,14,56,62.20
2015,10,11,14,57,62.00
2015,10,11,14,58,62.00
2015,10,11,14,59,61.50
2015,10,11,15,00,59.20
2015,10,11,15,01,56.00
2015,10,11,15,02,52.10
2015,10,11,15,03,52.50
2015,10,11,15,04,57.40
2015,10,11,15,05,66.00
2015,10,11,15,06,75.30
2015,10,11,15,07,80.60
2015,10,11,15,08,83.00
2015,10,11,15,09,83.00
2015,10,11,15,10,78.30
2015,10,11,15,11,72.60
2015,10,11,15,12,64.70
2015,10,11,15,13,62.70
2015,10,11,15,14,62.40
2015,10,11,15,15,64.00
2015,10,11,15,16,63.10
2015,10,11,15,17,57.60
2015,10,11,15,18,53.30
2015,10,11,15,19,53.80
2015,10,11,15,20,61.30
2015,10,11,15,21,64.30
2015,10,11,15,22,64.00
2015,10,11,15,23,65.00
2015,10,11,15,24,65.00
2015,10,11,15,25,62.30
2015,10,11,15,26,59.80
2015,10,11,15,27,58.00
2015,10,11,15,28,58.00
2015,10,11,15,29,58.00
2015,10,11,15,30,59.30
2015,10,11,15,31,63.70
2015,10,11,15,32,68.60
2015,10,11,15,33,69.90
2015,10,11,15,34,69.30
2015,10,11,15,35,70.70
2015,10,11,15,36,74.60
2015,10,11,15,37,78.30
2015,10,11,15,38,79.00
2015,10,11,15,39,79.00
2015,10,11,15,40,79.00
2015,10,11,15,41,79.50
2015,10,11,15,42,81.80
2015,10,11,15,43,83.00
2015,10,11,15,44,79.20
2015,10,11,15,45,74.80
2015,10,11,15,46,72.20
2015,10,11,15,47,72.00
2015,10,11,15,48,72.00
2015,10,11,15,49,72.00
2015,10,11,15,50,73.00
2015,10,11,15,51,75.90
2015,10,11,15,52,80.10
2015,10,11,15,53,81.00
2015,10,11,15,54,76.00
2015,10,11,15,55,69.70
2015,10,11,15,56,70.90
2015,10,11,15,57,75.60
2015,10,11,15,58,79.50
2015,10,11,15,59,82.50
2015,10,11,16,00,81.30
2015,10,11,16,01,79.30
2015,10,11,16,02,81.80
2015,10,11,16,03,85.60
2015,10,11,16,04,89.60
2015,10,11,16,05,94.80
2015,10,11,16,06,102.40
2015,10,11,16,07,108.40
2015,10,11,16,08,115.60
2015,10,11,16,09,127.30
2015,10,11,16,10,136.50
2015,10,11,16,11,136.60
2015,10,11,16,12,128.30
2015,10,11,16,13,121.30
2015,10,11,16,14,116.40
2015,10,11,16,15,105.50
2015,10,11,16,16,95.20
2015,10,11,16,17,86.70
2015,10,11,16,18,76.30
2015,10,11,16,19,67.60
2015,10,11,16,20,61.30
2015,10,11,16,21,54.70
2015,10,11,16,22,49.00
2015,10,11,16,23,50.30
2015,10,11,16,24,58.10
2015,10,11,16,25,68.50
2015,10,11,16,26,73.30
2015,10,11,16,27,74.00
2015,10,11,16,28,72.30
2015,10,11,16,29,64.00
2015,10,11,16,30,56.20
2015,10,11,16,31,49.50
2015,10,11,16,32,46.50
2015,10,11,16,33,44.70
2015,10,11,16,34,45.50
2015,10,11,16,35,46.90
2015,10,11,16,36,51.20
2015,10,11,16,37,53.80
2015,10,11,16,38,56.00
2015,10,11,16,39,55.00
2015,10,11,16,40,50.90
2015,10,11,16,41,47.50
2015,10,11,16,42,47.00
2015,10,11,16,43,47.00
2015,10,11,16,44,46.70
2015,10,11,16,45,46.00
2015,10,11,16,46,42.50
2015,10,11,16,47,37.70
2015,10,11,16,48,37.00
2015,10,11,16,49,37.00
2015,10,11,16,50,40.00
2015,10,11,16,51,40.50
2015,10,11,16,52,43.50
2015,10,11,16,53,45.00
2015,10,11,16,54,41.50
2015,10,11,16,55,39.30
2015,10,11,16,56,37.20
2015,10,11,16,57,39.70
2015,10,11,16,58,45.30
2015,10,11,16,59,49.00
2015,10,11,17,00,46.40
2015,10,11,17,01,39.60
2015,10,11,17,02,33.90
2015,10,11,17,03,30.30
2015,10,11,17,04,28.00
2015,10,11,17,05,28.00
2015,10,11,17,06,27.30
2015,10,11,17,07,24.50
2015,10,11,17,08,20.40
2015,10,11,17,09,18.30
2015,10,11,17,10,16.30
2015,10,11,17,11,18.00
2015,10,11,17,12,18.30
2015,10,11,17,13,19.80
2015,10,11,17,14,21.00
2015,10,11,17,15,21.00
2015,10,11,17,16,22.50
2015,10,11,17,17,21.20
2015,10,11,17,18,21.00
2015,10,11,17,19,20.50
2015,10,11,17,20,18.60
2015,10,11,17,21,17.00
2015,10,11,17,22,14.70
2015,10,11,17,23,14.00
2015,10,11,17,24,17.50
2015,10,11,17,25,21.60
2015,10,11,17,26,25.80
2015,10,11,17,27,28.00
2015,10,11,17,28,30.10
2015,10,11,17,29,32.60
2015,10,11,17,30,32.30
2015,10,11,17,31,30.30
2015,10,11,17,32,28.00
2015,10,11,17,33,28.00